Starlink 2433

operational
NORAD ID: 47841 Int'l Des: 2021-018 Owner: SPXS Country: US Constellation: starlink
LEOCIRCULARSTARLINK_TYPE

About Starlink 2433

Description loading...

Live Position

Loading 3D Globe...

Upcoming Passes

Altitude History

Altitude vs Time

uPlot chart will show altitude changes over time

Two-Line Element Set

1 47841U 21018BG 25351.86743495 .00002038 00000-0 15567-3 0 9998
2 47841 53.0541 238.9321 0001765 91.9631 268.1561 15.06402298264547
Epoch: Dec 17, 2025 • Age: 14 hours

Current Status

Altitude 548.8 km
Velocity 7.59 km/s
Sub-Earth Point -4.36°S, 176.74°E
Launch Date Mar 11, 2021
Age 4.7 years
Type internet

Technical Details

Classification Payload
Mass 260.00 kg
Dry Mass 248.00 kg
Total Mass 260.00 kg
Length 0.20 m
Diameter 2.80 m
Span 9.00 m
Shape Box + pan
Manufacturer SPXS
Bus Type Starlink
Phase Status In Orbit
Owner/State SPXS/US

Large Constellations

Loading constellations...